[[{"header":{"parameterUnit":"m.s-1","parameterCategory":1,"la1":30.2991,"la2":30.254,"lo1":-89.0895,"lo2":-89.0444,"dy":0.0017,"dx":0.0017,"nx":28,"ny":28,"refTime":"2024-07-03T09:00:00:Z","depth":0,"parameterNumber":2,"parameterNumberName":"U-component_of_WINDS"},"data":[0,0,0,0,0,0,0,0,0,0,0,0,0,0,0,0,0,0,0,0,0,0,0,0,0,0,0,0,0,0,0,0,0,0,0,0,0,0,0,0,0,0,0,0,0,0,0,0,0,0,0,0,0,0,0,0,0,0,1.7655,1.7655,0,1.771,1.771,1.7711,1.7726,1.7725,1.7725,1.7725,1.7783,1.7785,1.7787,0,0,0,0,0,0,0,0,0,0,0,0,0,1.7565,1.7567,1.7655,1.7655,1.7656,1.7709,1.771,1.7711,1.7726,1.7725,1.7725,1.7725,1.7783,1.7785,1.7787,0,0,0,0,0,0,0,0,0,0,0,0,0,1.761,1.7567,1.7655,1.767,1.7672,1.7709,1.771,1.7711,1.7726,1.7725,1.7725,1.7724,1.7782,1.7785,1.7787,1.7814,0,0,1.7796,1.7797,0,0,0,0,0,0,0,0,1.7608,1.7614,1.7667,1.7669,1.7671,1.771,1.77,1.7746,1.7726,1.7705,1.7725,1.7724,1.776,1.7764,1.7776,1.7817,1.782,1.7796,1.7798,1.7799,1.78,0,0,0,0,0,0,0,1.7605,1.7611,1.7676,1.7668,1.767,1.7675,1.7681,1.7709,1.7735,1.7707,1.7708,1.7715,1.7761,1.7773,1.7777,1.782,1.7796,1.7799,1.78,1.7801,1.7888,1.7888,0,0,0,0,0,0,1.7599,1.7609,1.7675,1.7678,1.7638,1.7677,1.7683,1.7698,1.7734,1.7739,1.7715,1.7715,1.7768,1.7774,1.7779,1.7814,1.7799,1.7802,1.7803,1.7887,1.7888,1.7889,0,0,0,0,0,0,1.7597,1.7604,1.7672,1.7644,1.7653,1.7679,1.7695,1.77,1.7712,1.774,1.7745,1.7723,1.7768,1.7775,1.7805,1.7816,1.7803,1.7805,1.7886,1.7887,1.7888,1.7882,0,0,0,0,0,0,1.7594,1.7604,1.7613,1.7644,1.7654,1.7697,1.7696,1.7701,1.7716,1.7717,1.7749,1.7753,1.7768,1.7801,1.7808,1.7819,1.7808,1.7886,1.7887,1.7888,1.7882,1.7883,1.7884,0,0,0,0,0,1.7591,1.761,1.7614,1.7622,1.7667,1.7698,1.7704,1.772,1.7717,1.7728,1.7746,1.7752,1.7813,1.7804,1.7812,1.7824,1.7885,1.7886,1.7888,1.7881,1.7883,1.7884,0,0,0,0,0,0,1.7581,1.7614,1.7619,1.7648,1.767,1.77,1.7714,1.7721,1.7744,1.7744,1.7764,1.7771,1.78,1.7815,1.7804,1.7853,1.7849,1.7853,1.7842,1.7843,1.7844,1.784,1.781,0,0,0,0,0,1.7582,1.7603,1.7631,1.7655,1.7665,1.7688,1.7702,1.7712,1.7736,1.7745,1.7766,1.7789,1.7813,1.7829,1.7853,1.7884,1.7891,1.7896,1.7897,1.7898,1.7901,1.7919,1.7922,1.7893,1.7893,1.7893,0,0,1.7584,1.7605,1.7618,1.7653,1.7671,1.7694,1.7695,1.7719,1.7736,1.7749,1.7779,1.7795,1.7822,1.7853,1.7867,1.7866,1.791,1.79,1.79,1.7903,1.7921,1.7923,1.7926,1.7894,1.7894,1.7894,0,0,1.7601,1.7618,1.764,1.7658,1.7685,1.77,1.7705,1.7734,1.7745,1.7775,1.7785,1.7807,1.7848,1.7867,1.7883,1.7907,1.7914,1.7914,1.792,1.7937,1.794,1.7942,1.7951,1.7954,1.7916,1.7916,1.7916,0,1.7601,1.7634,1.765,1.7673,1.7689,1.7701,1.7724,1.7741,1.7775,1.7785,1.7784,1.7837,1.7856,1.7891,1.7897,1.7909,1.7916,1.7911,1.7938,1.794,1.7942,1.7951,1.7955,1.7916,1.7916,1.7916,1.7916,0,1.7633,1.7656,1.7671,1.7702,1.772,1.7742,1.7763,1.7779,1.7788,1.7803,1.7834,1.7857,1.7887,1.7896,1.7905,1.7933,1.7932,1.7934,1.7931,1.7945,1.7954,1.7957,1.7916,1.7916,1.7916,1.7916,0,0,1.7644,1.7685,1.769,1.7705,1.7736,1.7755,1.7778,1.7806,1.782,1.7843,1.7864,1.7899,1.7901,1.7918,1.793,1.7945,1.7963,1.7945,1.7946,1.7948,1.7996,1.7995,1.7999,1.7968,1.7969,1.7969,1.7994,0,1.7665,1.7707,1.7722,1.7757,1.7779,1.7791,1.7812,1.7834,1.7849,1.7871,1.7888,1.7912,1.7913,1.7923,1.7939,1.7958,1.7973,1.7956,1.7989,1.799,1.7982,1.8003,1.8002,1.8024,1.7998,1.7998,1.7999,0,1.7694,1.7717,1.7754,1.7783,1.7793,1.7811,1.7838,1.7859,1.7884,1.7894,1.7913,1.7924,1.795,1.7945,1.7982,1.797,1.7984,1.7996,1.7997,1.8001,1.7995,1.8008,1.8031,1.8035,1.8004,1.8004,1.8003,0,1.77,1.774,1.7767,1.778,1.7814,1.7826,1.7841,1.7866,1.7882,1.7906,1.7917,1.7944,1.7959,1.798,1.7998,1.7993,1.8034,1.803,1.8043,1.8043,1.8052,1.8051,1.8078,1.806,1.806,1.806,1.806,0,1.7721,1.7743,1.777,1.7787,1.7812,1.783,1.7855,1.7871,1.7893,1.7914,1.7926,1.7946,1.7968,1.7991,1.8005,1.8034,1.8041,1.805,1.8054,1.8049,1.8048,1.8059,1.8058,1.8061,1.8061,1.806,1.806,0,1.7731,1.775,1.7781,1.781,1.7819,1.7836,1.7862,1.7879,1.7895,1.7921,1.7928,1.7953,1.798,1.8,1.8036,1.8046,1.8077,1.808,1.8068,1.807,1.8082,1.8081,1.8117,1.8123,1.8101,1.8101,1.8101,0,1.7744,1.7761,1.7793,1.7807,1.7822,1.7845,1.7862,1.788,1.7897,1.7927,1.7941,1.7969,1.7993,1.8036,1.8058,1.8085,1.809,1.8101,1.8094,1.8089,1.809,1.8089,1.8091,1.8102,1.8102,1.8102,1.8102,0,1.7765,1.7773,1.7796,1.7822,1.7841,1.7863,1.7885,1.7896,1.7919,1.7937,1.7965,1.7983,1.8019,1.8047,1.8077,1.8093,1.8102,1.8104,1.8108,1.8104,1.8096,1.8101,1.8071,1.8103,1.8103,1.8103,1.8103,1.8103,1.7777,1.7793,1.7818,1.7843,1.7861,1.7882,1.7899,1.7917,1.794,1.7971,1.7981,1.801,1.8035,1.8076,1.8092,1.8116,1.8116,1.8122,1.8124,1.8125,1.8125,1.8092,1.8121,1.8121,1.8121,1.8121,1.8121,0,1.7798,1.7815,1.7838,1.7868,1.7888,1.7894,1.7919,1.7935,1.796,1.7983,1.8006,1.8038,1.8065,1.8089,1.8118,1.8132,1.8137,1.8139,1.8138,1.8142,1.8123,1.8117,1.8135,1.8135,1.8135,1.8135,1.8135,1.8135,1.7812,1.784,1.7851,1.7889,1.7905,1.7933,1.7947,1.7966,1.7985,1.802,1.8042,1.8057,1.8081,1.8111,1.8137,1.8143,1.8154,1.8155,1.8162,1.8145,1.8143,1.8142,1.8136,1.8157,1.8157,1.8179,1.8179,1.8179]},{"header":{"parameterUnit":"m.s-1","parameterCategory":1,"la1":30.2991,"la2":30.254,"lo1":-89.0895,"lo2":-89.0444,"dy":0.0017,"dx":0.0017,"nx":28,"ny":28,"refTime":"2024-07-03T09:00:00:Z","depth":0,"parameterNumber":3,"parameterNumberName":"V-component_of_WINDS"},"data":[0,0,0,0,0,0,0,0,0,0,0,0,0,0,0,0,0,0,0,0,0,0,0,0,0,0,0,0,0,0,0,0,0,0,0,0,0,0,0,0,0,0,0,0,0,0,0,0,0,0,0,0,0,0,0,0,0,0,2.0624,2.0624,0,2.0644,2.0644,2.0644,2.0665,2.0665,2.0665,2.0665,2.0684,2.0684,2.0684,0,0,0,0,0,0,0,0,0,0,0,0,0,2.0603,2.0604,2.0624,2.0624,2.0625,2.0644,2.0644,2.0644,2.0665,2.0665,2.0665,2.0666,2.0684,2.0684,2.0684,0,0,0,0,0,0,0,0,0,0,0,0,0,2.0617,2.0604,2.0624,2.0637,2.0638,2.0644,2.0644,2.0644,2.0664,2.0665,2.0665,2.0666,2.0684,2.0684,2.0684,2.0678,0,0,2.0685,2.0685,0,0,0,0,0,0,0,0,2.0616,2.0617,2.0635,2.0636,2.0638,2.0652,2.0643,2.0655,2.0664,2.0655,2.0665,2.0666,2.0673,2.0674,2.0677,2.0678,2.0679,2.0685,2.0685,2.0686,2.0686,0,0,0,0,0,0,0,2.0615,2.0617,2.0632,2.0635,2.0637,2.0642,2.0644,2.0646,2.0661,2.0655,2.0657,2.0659,2.0674,2.0676,2.0677,2.068,2.0685,2.0686,2.0686,2.0686,2.0678,2.0677,0,0,0,0,0,0,2.0612,2.0616,2.0631,2.0632,2.0628,2.0642,2.0644,2.0647,2.0661,2.0664,2.0659,2.066,2.0676,2.0677,2.0678,2.0671,2.0686,2.0686,2.0686,2.0678,2.0677,2.0677,0,0,0,0,0,0,2.0612,2.0613,2.063,2.0624,2.0627,2.0642,2.0645,2.0647,2.065,2.0664,2.0666,2.0659,2.0676,2.0678,2.0678,2.0672,2.0686,2.0686,2.0678,2.0678,2.0677,2.0658,0,0,0,0,0,0,2.0611,2.0613,2.0611,2.0624,2.0627,2.063,2.0644,2.0647,2.0651,2.0653,2.0664,2.0667,2.0676,2.0677,2.0678,2.0673,2.0687,2.0679,2.0678,2.0677,2.0659,2.0657,2.0655,0,0,0,0,0,2.061,2.0604,2.061,2.0612,2.0625,2.063,2.0631,2.0643,2.065,2.0648,2.0657,2.0666,2.0673,2.0677,2.0678,2.0673,2.0679,2.0678,2.0677,2.066,2.0657,2.0655,0,0,0,0,0,0,2.0588,2.0606,2.0613,2.0611,2.0619,2.0633,2.0631,2.064,2.0645,2.0646,2.0661,2.0663,2.0662,2.0668,2.0672,2.0668,2.0678,2.0677,2.0664,2.0661,2.0659,2.0657,2.0687,0,0,0,0,0,2.0584,2.0587,2.0602,2.0598,2.0602,2.0616,2.0618,2.0627,2.0635,2.0638,2.0647,2.0654,2.0658,2.066,2.0664,2.066,2.0663,2.0658,2.0655,2.0653,2.0652,2.0651,2.0649,2.0674,2.0674,2.0674,0,0,2.0573,2.0583,2.0584,2.0594,2.0601,2.0604,2.0618,2.062,2.0622,2.0638,2.0639,2.0646,2.0655,2.0653,2.0653,2.0658,2.0646,2.0652,2.0651,2.0651,2.065,2.0648,2.0646,2.0673,2.0673,2.0673,0,0,2.0556,2.0564,2.0562,2.0569,2.058,2.0589,2.0589,2.0602,2.0607,2.0609,2.0621,2.0624,2.063,2.0636,2.064,2.0626,2.0635,2.0627,2.0615,2.0614,2.0612,2.061,2.0605,2.0603,2.0626,2.0626,2.0626,0,2.0541,2.0546,2.056,2.0561,2.0566,2.0582,2.058,2.0586,2.0597,2.06,2.0606,2.0615,2.0622,2.0622,2.0619,2.0621,2.0621,2.0625,2.0611,2.061,2.0608,2.0604,2.0602,2.0625,2.0625,2.0625,2.0625,0,2.0528,2.0531,2.0528,2.054,2.0544,2.0544,2.0558,2.056,2.0569,2.0578,2.0579,2.0589,2.0595,2.0596,2.0604,2.0598,2.06,2.0609,2.0618,2.0604,2.06,2.0599,2.0623,2.0624,2.0624,2.0624,0,0,2.0496,2.0516,2.0515,2.0521,2.0534,2.0537,2.0538,2.0545,2.0547,2.0554,2.0555,2.0561,2.0569,2.0573,2.0582,2.0581,2.057,2.0589,2.059,2.0585,2.0563,2.0557,2.0555,2.0576,2.0576,2.0576,2.0563,0,2.048,2.0483,2.0497,2.0496,2.0499,2.0515,2.0516,2.0524,2.0533,2.0536,2.0545,2.0549,2.0559,2.0562,2.0562,2.0571,2.0565,2.0572,2.0577,2.0577,2.0574,2.0553,2.0546,2.0533,2.0561,2.0561,2.0561,0,2.0462,2.047,2.0469,2.0484,2.0486,2.0486,2.0494,2.0498,2.0508,2.0514,2.052,2.053,2.0532,2.0542,2.0545,2.0549,2.0552,2.0557,2.0557,2.0557,2.0567,2.0552,2.0529,2.0527,2.0558,2.0558,2.0559,0,2.0439,2.0449,2.045,2.0454,2.0471,2.0471,2.0478,2.0489,2.0493,2.05,2.0503,2.051,2.0513,2.0518,2.0531,2.0537,2.0532,2.0543,2.0537,2.0537,2.0535,2.0534,2.0511,2.0537,2.0537,2.0537,2.0537,0,2.042,2.0419,2.044,2.044,2.044,2.0456,2.0455,2.0463,2.0473,2.0475,2.0489,2.0491,2.0508,2.0511,2.0521,2.0522,2.0523,2.0528,2.0531,2.0527,2.0526,2.0528,2.0529,2.0537,2.0537,2.0537,2.0537,0,2.0393,2.0407,2.041,2.0426,2.043,2.0429,2.0443,2.0444,2.0454,2.0457,2.0459,2.0474,2.0479,2.0492,2.0501,2.0507,2.0506,2.051,2.0502,2.0504,2.0497,2.0498,2.0474,2.0472,2.0499,2.0499,2.0499,0,2.038,2.038,2.0396,2.04,2.0406,2.0411,2.0415,2.0431,2.0435,2.0447,2.0447,2.0454,2.046,2.0467,2.0479,2.0486,2.0491,2.0482,2.0492,2.0488,2.049,2.049,2.049,2.048,2.0479,2.0479,2.0479,0,2.0354,2.0362,2.0368,2.0377,2.0382,2.039,2.0398,2.04,2.0417,2.0421,2.0427,2.0432,2.0442,2.0448,2.0457,2.0464,2.0474,2.0476,2.0475,2.047,2.0466,2.0468,2.0496,2.0476,2.0476,2.0476,2.0477,2.0477,2.0334,2.0335,2.0347,2.0354,2.0362,2.037,2.0372,2.0383,2.0389,2.0398,2.0407,2.0412,2.0423,2.0436,2.0442,2.0447,2.0452,2.045,2.045,2.0449,2.0448,2.0466,2.0448,2.0448,2.0448,2.0449,2.0449,0,2.031,2.0319,2.0325,2.0337,2.0342,2.0353,2.0363,2.0366,2.0371,2.0381,2.0387,2.0394,2.0401,2.0414,2.0421,2.0422,2.0427,2.0424,2.0423,2.0425,2.0442,2.0443,2.042,2.042,2.042,2.042,2.042,2.042,2.0297,2.03,2.0309,2.0316,2.0325,2.0331,2.0336,2.0343,2.0351,2.0359,2.0365,2.0373,2.0384,2.0393,2.04,2.0403,2.0405,2.04,2.0405,2.0421,2.0424,2.0426,2.0426,2.04,2.04,2.0387,2.0387,2.0387]}]]